Wetterdaten: Donnerstag, 04.06.2015
Datum Zeit Temperatur Luftfeuchte Luftdruck Regen Wind Richtung Richtung Sonnenschein ET UV Solar Taupunkt Windchill Windben
04.06.2015 00:00 12,8 C 73 % 1026,1 hPa 0,0 l/m 0,0 km/h (0 Bft) O-SO 103 0 min 0,000 mm 0,0 UV-I 0 W/m 8,1 C 12,8 C 0,0 km/h (0 Bft)
04.06.2015 00:05 12,8 C 74 % 1026,1 hPa 0,0 l/m 0,0 km/h (0 Bft) O-SO 103 0 min 0,000 mm 0,0 UV-I 0 W/m 8,3 C 12,8 C 0,0 km/h (0 Bft)
04.06.2015 00:10 12,7 C 75 % 1026,1 hPa 0,0 l/m 0,0 km/h (0 Bft) O-SO 103 0 min 0,000 mm 0,0 UV-I 0 W/m 8,4 C 12,7 C 0,0 km/h (0 Bft)
04.06.2015 00:15 12,6 C 74 % 1026,2 hPa 0,0 l/m 0,0 km/h (0 Bft) O-SO 103 0 min 0,000 mm 0,0 UV-I 0 W/m 8,1 C 12,6 C 0,0 km/h (0 Bft)
04.06.2015 00:20 12,5 C 74 % 1026,2 hPa 0,0 l/m 0,0 km/h (0 Bft) O-SO 103 0 min 0,000 mm 0,0 UV-I 0 W/m 8,0 C 12,5 C 0,0 km/h (0 Bft)
04.06.2015 00:25 12,5 C 75 % 1026,2 hPa 0,0 l/m 0,0 km/h (0 Bft) O-SO 103 0 min 0,000 mm 0,0 UV-I 0 W/m 8,2 C 12,5 C 0,0 km/h (0 Bft)
04.06.2015 00:30 12,4 C 76 % 1026,2 hPa 0,0 l/m 0,0 km/h (0 Bft) O-SO 103 0 min 0,000 mm 0,0 UV-I 0 W/m 8,3 C 12,4 C 0,0 km/h (0 Bft)
04.06.2015 00:35 12,4 C 76 % 1026,2 hPa 0,0 l/m 0,0 km/h (0 Bft) O-SO 103 0 min 0,000 mm 0,0 UV-I 0 W/m 8,3 C 12,4 C 0,0 km/h (0 Bft)
04.06.2015 00:40 12,3 C 76 % 1026,3 hPa 0,0 l/m 0,0 km/h (0 Bft) O-SO 103 0 min 0,000 mm 0,0 UV-I 0 W/m 8,2 C 12,3 C 0,0 km/h (0 Bft)
04.06.2015 00:45 12,3 C 77 % 1026,3 hPa 0,0 l/m 0,0 km/h (0 Bft) O-SO 103 0 min 0,000 mm 0,0 UV-I 0 W/m 8,4 C 12,3 C 0,0 km/h (0 Bft)
04.06.2015 00:50 12,2 C 77 % 1026,4 hPa 0,0 l/m 0,0 km/h (0 Bft) O-SO 103 0 min 0,000 mm 0,0 UV-I 0 W/m 8,3 C 12,2 C 0,0 km/h (0 Bft)
04.06.2015 00:55 12,2 C 77 % 1026,4 hPa 0,0 l/m 0,0 km/h (0 Bft) O-SO 103 0 min 0,000 mm 0,0 UV-I 0 W/m 8,3 C 12,2 C 0,0 km/h (0 Bft)
04.06.2015 01:00 12,2 C 77 % 1026,4 hPa 0,0 l/m 0,0 km/h (0 Bft) O-SO 103 0 min 0,000 mm 0,0 UV-I 0 W/m 8,3 C 12,2 C 0,0 km/h (0 Bft)
04.06.2015 01:05 12,1 C 77 % 1026,4 hPa 0,0 l/m 0,0 km/h (0 Bft) O-SO 103 0 min 0,025 mm 0,0 UV-I 0 W/m 8,2 C 12,1 C 0,0 km/h (0 Bft)
04.06.2015 01:10 12,1 C 77 % 1026,5 hPa 0,0 l/m 0,0 km/h (0 Bft) O-SO 103 0 min 0,000 mm 0,0 UV-I 0 W/m 8,2 C 12,1 C 0,0 km/h (0 Bft)
04.06.2015 01:15 12,1 C 77 % 1026,5 hPa 0,0 l/m 0,0 km/h (0 Bft) O-SO 103 0 min 0,000 mm 0,0 UV-I 0 W/m 8,2 C 12,1 C 0,0 km/h (0 Bft)
04.06.2015 01:20 11,9 C 78 % 1026,5 hPa 0,0 l/m 0,0 km/h (0 Bft) O-SO 103 0 min 0,000 mm 0,0 UV-I 0 W/m 8,2 C 11,9 C 0,0 km/h (0 Bft)
04.06.2015 01:25 11,8 C 78 % 1026,5 hPa 0,0 l/m 0,0 km/h (0 Bft) O-SO 103 0 min 0,000 mm 0,0 UV-I 0 W/m 8,1 C 11,8 C 0,0 km/h (0 Bft)
04.06.2015 01:30 11,8 C 78 % 1026,5 hPa 0,0 l/m 0,0 km/h (0 Bft) O-SO 103 0 min 0,000 mm 0,0 UV-I 0 W/m 8,1 C 11,8 C 0,0 km/h (0 Bft)
04.06.2015 01:35 11,7 C 79 % 1026,5 hPa 0,0 l/m 0,0 km/h (0 Bft) O-SO 103 0 min 0,000 mm 0,0 UV-I 0 W/m 8,2 C 11,7 C 0,0 km/h (0 Bft)
04.06.2015 01:40 11,7 C 79 % 1026,5 hPa 0,0 l/m 0,0 km/h (0 Bft) O-SO 103 0 min 0,000 mm 0,0 UV-I 0 W/m 8,2 C 11,7 C 0,0 km/h (0 Bft)
04.06.2015 01:45 11,7 C 79 % 1026,7 hPa 0,0 l/m 0,0 km/h (0 Bft) O-SO 103 0 min 0,000 mm 0,0 UV-I 0 W/m 8,2 C 11,7 C 0,0 km/h (0 Bft)
04.06.2015 01:50 11,6 C 79 % 1026,7 hPa 0,0 l/m 0,0 km/h (0 Bft) O-SO 103 0 min 0,000 mm 0,0 UV-I 0 W/m 8,1 C 11,6 C 0,0 km/h (0 Bft)
04.06.2015 01:55 11,4 C 80 % 1026,6 hPa 0,0 l/m 0,0 km/h (0 Bft) O-SO 103 0 min 0,000 mm 0,0 UV-I 0 W/m 8,1 C 11,4 C 0,0 km/h (0 Bft)
04.06.2015 02:00 11,3 C 80 % 1026,6 hPa 0,0 l/m 0,0 km/h (0 Bft) O-SO 103 0 min 0,000 mm 0,0 UV-I 0 W/m 8,0 C 11,3 C 0,0 km/h (0 Bft)
04.06.2015 02:05 11,2 C 80 % 1026,7 hPa 0,0 l/m 0,0 km/h (0 Bft) O-SO 103 0 min 0,026 mm 0,0 UV-I 0 W/m 7,9 C 11,2 C 0,0 km/h (0 Bft)
04.06.2015 02:10 11,1 C 80 % 1026,7 hPa 0,0 l/m 0,0 km/h (0 Bft) O-SO 103 0 min 0,000 mm 0,0 UV-I 0 W/m 7,8 C 11,1 C 0,0 km/h (0 Bft)
04.06.2015 02:15 10,9 C 81 % 1026,7 hPa 0,0 l/m 0,0 km/h (0 Bft) O-SO 103 0 min 0,000 mm 0,0 UV-I 0 W/m 7,8 C 10,9 C 0,0 km/h (0 Bft)
04.06.2015 02:20 10,9 C 81 % 1026,7 hPa 0,0 l/m 0,0 km/h (0 Bft) O-SO 103 0 min 0,000 mm 0,0 UV-I 0 W/m 7,8 C 10,9 C 0,0 km/h (0 Bft)
04.06.2015 02:25 10,9 C 81 % 1026,7 hPa 0,0 l/m 0,0 km/h (0 Bft) O-SO 103 0 min 0,000 mm 0,0 UV-I 0 W/m 7,8 C 10,9 C 0,0 km/h (0 Bft)
04.06.2015 02:30 10,8 C 81 % 1026,8 hPa 0,0 l/m 0,0 km/h (0 Bft) O-SO 103 0 min 0,000 mm 0,0 UV-I 0 W/m 7,7 C 10,8 C 0,0 km/h (0 Bft)
04.06.2015 02:35 10,7 C 82 % 1026,8 hPa 0,0 l/m 0,0 km/h (0 Bft) O-SO 103 0 min 0,000 mm 0,0 UV-I 0 W/m 7,8 C 10,7 C 0,0 km/h (0 Bft)
04.06.2015 02:40 10,6 C 82 % 1026,9 hPa 0,0 l/m 0,0 km/h (0 Bft) O-SO 103 0 min 0,000 mm 0,0 UV-I 0 W/m 7,7 C 10,6 C 0,0 km/h (0 Bft)
04.06.2015 02:45 10,4 C 82 % 1026,8 hPa 0,0 l/m 0,0 km/h (0 Bft) O-SO 103 0 min 0,000 mm 0,0 UV-I 0 W/m 7,5 C 10,4 C 0,0 km/h (0 Bft)
04.06.2015 02:50 10,3 C 82 % 1026,9 hPa 0,0 l/m 0,0 km/h (0 Bft) O-SO 103 0 min 0,000 mm 0,0 UV-I 0 W/m 7,4 C 10,3 C 0,0 km/h (0 Bft)
04.06.2015 02:55 10,2 C 82 % 1027,0 hPa 0,0 l/m 0,0 km/h (0 Bft) O-SO 103 0 min 0,000 mm 0,0 UV-I 0 W/m 7,3 C 10,2 C 0,0 km/h (0 Bft)
04.06.2015 03:00 10,0 C 82 % 1026,9 hPa 0,0 l/m 0,0 km/h (0 Bft) O-SO 103 0 min 0,000 mm 0,0 UV-I 0 W/m 7,1 C 10,0 C 0,0 km/h (0 Bft)
04.06.2015 03:05 9,8 C 82 % 1026,9 hPa 0,0 l/m 0,0 km/h (0 Bft) O-SO 103 0 min 0,025 mm 0,0 UV-I 0 W/m 6,9 C 9,8 C 0,0 km/h (0 Bft)
04.06.2015 03:10 9,7 C 83 % 1026,9 hPa 0,0 l/m 0,0 km/h (0 Bft) O-SO 103 0 min 0,000 mm 0,0 UV-I 0 W/m 7,0 C 9,7 C 0,0 km/h (0 Bft)
04.06.2015 03:15 9,7 C 84 % 1026,9 hPa 0,0 l/m 0,0 km/h (0 Bft) O-SO 103 0 min 0,000 mm 0,0 UV-I 0 W/m 7,1 C 9,7 C 0,0 km/h (0 Bft)
04.06.2015 03:20 9,6 C 84 % 1027,0 hPa 0,0 l/m 0,0 km/h (0 Bft) O-SO 103 0 min 0,000 mm 0,0 UV-I 0 W/m 7,0 C 9,6 C 0,0 km/h (0 Bft)
04.06.2015 03:25 9,4 C 85 % 1027,0 hPa 0,0 l/m 0,0 km/h (0 Bft) O-SO 103 0 min 0,000 mm 0,0 UV-I 0 W/m 7,0 C 9,4 C 0,0 km/h (0 Bft)
04.06.2015 03:30 9,3 C 85 % 1027,1 hPa 0,0 l/m 0,0 km/h (0 Bft) O-SO 103 0 min 0,000 mm 0,0 UV-I 0 W/m 6,9 C 9,3 C 0,0 km/h (0 Bft)
04.06.2015 03:35 9,2 C 85 % 1027,0 hPa 0,0 l/m 0,0 km/h (0 Bft) O-SO 103 0 min 0,000 mm 0,0 UV-I 0 W/m 6,8 C 9,2 C 0,0 km/h (0 Bft)
04.06.2015 03:40 9,2 C 86 % 1027,1 hPa 0,0 l/m 0,0 km/h (0 Bft) O-SO 103 0 min 0,000 mm 0,0 UV-I 0 W/m 7,0 C 9,2 C 0,0 km/h (0 Bft)
04.06.2015 03:45 9,1 C 86 % 1027,1 hPa 0,0 l/m 0,0 km/h (0 Bft) O-SO 103 0 min 0,000 mm 0,0 UV-I 0 W/m 6,9 C 9,1 C 0,0 km/h (0 Bft)
04.06.2015 03:50 9,1 C 86 % 1027,1 hPa 0,0 l/m 0,0 km/h (0 Bft) O-SO 103 0 min 0,000 mm 0,0 UV-I 0 W/m 6,9 C 9,1 C 0,0 km/h (0 Bft)
04.06.2015 03:55 9,1 C 86 % 1027,1 hPa 0,0 l/m 0,0 km/h (0 Bft) O-SO 103 0 min 0,000 mm 0,0 UV-I 0 W/m 6,9 C 9,1 C 0,0 km/h (0 Bft)
04.06.2015 04:00 9,1 C 86 % 1027,0 hPa 0,0 l/m 0,0 km/h (0 Bft) O-SO 103 0 min 0,000 mm 0,0 UV-I 0 W/m 6,9 C 9,1 C 0,0 km/h (0 Bft)
04.06.2015 04:05 9,0 C 86 % 1027,0 hPa 0,0 l/m 0,0 km/h (0 Bft) O-SO 103 0 min 0,000 mm 0,0 UV-I 0 W/m 6,8 C 9,0 C 0,0 km/h (0 Bft)
04.06.2015 04:10 8,9 C 86 % 1027,0 hPa 0,0 l/m 0,0 km/h (0 Bft) O-SO 103 0 min 0,000 mm 0,0 UV-I 0 W/m 6,7 C 8,9 C 0,0 km/h (0 Bft)
04.06.2015 04:15 8,8 C 86 % 1027,0 hPa 0,0 l/m 0,0 km/h (0 Bft) O-SO 103 0 min 0,000 mm 0,0 UV-I 0 W/m 6,6 C 8,8 C 0,0 km/h (0 Bft)
04.06.2015 04:20 8,8 C 86 % 1027,0 hPa 0,0 l/m 0,0 km/h (0 Bft) O-SO 103 0 min 0,000 mm 0,0 UV-I 0 W/m 6,6 C 8,8 C 0,0 km/h (0 Bft)
04.06.2015 04:25 8,8 C 86 % 1027,1 hPa 0,0 l/m 0,0 km/h (0 Bft) O-SO 103 0 min 0,000 mm 0,0 UV-I 0 W/m 6,6 C 8,8 C 0,0 km/h (0 Bft)
04.06.2015 04:30 8,8 C 87 % 1027,1 hPa 0,0 l/m 0,0 km/h (0 Bft) O-SO 103 0 min 0,000 mm 0,0 UV-I 0 W/m 6,8 C 8,8 C 0,0 km/h (0 Bft)
04.06.2015 04:35 8,8 C 87 % 1027,1 hPa 0,0 l/m 0,0 km/h (0 Bft) O-SO 103 0 min 0,000 mm 0,0 UV-I 0 W/m 6,8 C 8,8 C 0,0 km/h (0 Bft)
04.06.2015 04:40 8,7 C 87 % 1027,1 hPa 0,0 l/m 0,0 km/h (0 Bft) O-SO 103 0 min 0,000 mm 0,0 UV-I 0 W/m 6,7 C 8,7 C 0,0 km/h (0 Bft)
04.06.2015 04:45 8,8 C 87 % 1027,1 hPa 0,0 l/m 0,0 km/h (0 Bft) O-SO 103 0 min 0,000 mm 0,0 UV-I 0 W/m 6,8 C 8,8 C 0,0 km/h (0 Bft)
04.06.2015 04:50 8,8 C 87 % 1027,2 hPa 0,0 l/m 0,0 km/h (0 Bft) O-SO 103 0 min 0,000 mm 0,0 UV-I 0 W/m 6,8 C 8,8 C 0,0 km/h (0 Bft)
04.06.2015 04:55 8,8 C 87 % 1027,3 hPa 0,0 l/m 0,0 km/h (0 Bft) O-SO 103 0 min 0,000 mm 0,0 UV-I 0 W/m 6,8 C 8,8 C 0,0 km/h (0 Bft)
04.06.2015 05:00 8,8 C 87 % 1027,3 hPa 0,0 l/m 0,0 km/h (0 Bft) O-SO 103 0 min 0,000 mm 0,0 UV-I 0 W/m 6,8 C 8,8 C 0,0 km/h (0 Bft)
04.06.2015 05:05 8,8 C 87 % 1027,3 hPa 0,0 l/m 0,0 km/h (0 Bft) O-SO 103 0 min 0,000 mm 0,0 UV-I 0 W/m 6,8 C 8,8 C 0,0 km/h (0 Bft)
04.06.2015 05:10 8,8 C 87 % 1027,4 hPa 0,0 l/m 0,0 km/h (0 Bft) O-SO 103 0 min 0,000 mm 0,0 UV-I 0 W/m 6,8 C 8,8 C 0,0 km/h (0 Bft)
04.06.2015 05:15 8,8 C 87 % 1027,3 hPa 0,0 l/m 0,0 km/h (0 Bft) O-SO 103 0 min 0,000 mm 0,0 UV-I 0 W/m 6,8 C 8,8 C 0,0 km/h (0 Bft)
04.06.2015 05:20 8,8 C 87 % 1027,3 hPa 0,0 l/m 0,0 km/h (0 Bft) O-SO 103 0 min 0,000 mm 0,0 UV-I 0 W/m 6,8 C 8,8 C 0,0 km/h (0 Bft)
04.06.2015 05:25 8,8 C 87 % 1027,4 hPa 0,0 l/m 0,0 km/h (0 Bft) O-SO 103 0 min 0,000 mm 0,0 UV-I 1 W/m 6,8 C 8,8 C 0,0 km/h (0 Bft)
04.06.2015 05:30 8,8 C 87 % 1027,4 hPa 0,0 l/m 0,0 km/h (0 Bft) O-SO 103 0 min 0,000 mm 0,0 UV-I 6 W/m 6,8 C 8,8 C 0,0 km/h (0 Bft)
04.06.2015 05:35 8,8 C 88 % 1027,4 hPa 0,0 l/m 0,0 km/h (0 Bft) O-SO 103 0 min 0,000 mm 0,0 UV-I 7 W/m 6,9 C 8,8 C 0,0 km/h (0 Bft)
04.06.2015 05:40 8,9 C 88 % 1027,4 hPa 0,0 l/m 0,0 km/h (0 Bft) O-SO 105 0 min 0,000 mm 0,0 UV-I 11 W/m 7,0 C 8,9 C 0,0 km/h (0 Bft)
04.06.2015 05:45 8,8 C 88 % 1027,5 hPa 0,0 l/m 0,0 km/h (0 Bft) O-SO 105 0 min 0,000 mm 0,0 UV-I 12 W/m 6,9 C 8,8 C 0,0 km/h (0 Bft)
04.06.2015 05:50 8,9 C 88 % 1027,4 hPa 0,0 l/m 0,0 km/h (0 Bft) O-SO 105 0 min 0,000 mm 0,0 UV-I 16 W/m 7,0 C 8,9 C 0,0 km/h (0 Bft)
04.06.2015 05:55 8,9 C 88 % 1027,5 hPa 0,0 l/m 0,0 km/h (0 Bft) O-SO 105 0 min 0,000 mm 0,0 UV-I 20 W/m 7,0 C 8,9 C 0,0 km/h (0 Bft)
04.06.2015 06:00 8,9 C 88 % 1027,5 hPa 0,0 l/m 0,0 km/h (0 Bft) O-SO 105 0 min 0,000 mm 0,0 UV-I 23 W/m 7,0 C 8,9 C 0,0 km/h (0 Bft)
04.06.2015 06:05 8,9 C 88 % 1027,4 hPa 0,0 l/m 0,0 km/h (0 Bft) O-SO 105 0 min 0,000 mm 0,0 UV-I 29 W/m 7,0 C 8,9 C 0,0 km/h (0 Bft)
04.06.2015 06:10 8,9 C 88 % 1027,5 hPa 0,0 l/m 0,0 km/h (0 Bft) O-SO 105 0 min 0,000 mm 0,0 UV-I 34 W/m 7,0 C 8,9 C 0,0 km/h (0 Bft)
04.06.2015 06:15 8,9 C 88 % 1027,5 hPa 0,0 l/m 0,0 km/h (0 Bft) O-SO 105 0 min 0,000 mm 0,0 UV-I 41 W/m 7,0 C 8,9 C 0,0 km/h (0 Bft)
04.06.2015 06:20 8,9 C 88 % 1027,5 hPa 0,0 l/m 0,0 km/h (0 Bft) SW 234 0 min 0,000 mm 0,0 UV-I 48 W/m 7,0 C 8,9 C 0,0 km/h (0 Bft)
04.06.2015 06:25 9,0 C 88 % 1027,5 hPa 0,0 l/m 0,0 km/h (0 Bft) W 273 0 min 0,000 mm 0,0 UV-I 54 W/m 7,1 C 9,0 C 1,6 km/h (1 Bft)
04.06.2015 06:30 9,0 C 88 % 1027,6 hPa 0,0 l/m 0,0 km/h (0 Bft) W 273 0 min 0,000 mm 0,0 UV-I 65 W/m 7,1 C 9,0 C 0,0 km/h (0 Bft)
04.06.2015 06:35 9,1 C 88 % 1027,6 hPa 0,0 l/m 0,0 km/h (0 Bft) W 273 0 min 0,000 mm 0,0 UV-I 72 W/m 7,2 C 9,1 C 0,0 km/h (0 Bft)
04.06.2015 06:40 9,1 C 88 % 1027,6 hPa 0,0 l/m 0,0 km/h (0 Bft) W 273 0 min 0,000 mm 0,0 UV-I 79 W/m 7,2 C 9,1 C 0,0 km/h (0 Bft)
04.06.2015 06:45 9,1 C 88 % 1027,7 hPa 0,0 l/m 0,0 km/h (0 Bft) W 273 0 min 0,000 mm 0,0 UV-I 86 W/m 7,2 C 9,1 C 0,0 km/h (0 Bft)
04.06.2015 06:50 9,2 C 88 % 1027,7 hPa 0,0 l/m 0,0 km/h (0 Bft) W 273 0 min 0,000 mm 0,0 UV-I 81 W/m 7,3 C 9,2 C 0,0 km/h (0 Bft)
04.06.2015 06:55 9,3 C 88 % 1027,8 hPa 0,0 l/m 0,0 km/h (0 Bft) W 273 0 min 0,000 mm 0,0 UV-I 97 W/m 7,4 C 9,3 C 0,0 km/h (0 Bft)
04.06.2015 07:00 9,3 C 88 % 1027,8 hPa 0,0 l/m 0,0 km/h (0 Bft) W 273 0 min 0,026 mm 0,0 UV-I 104 W/m 7,4 C 9,3 C 0,0 km/h (0 Bft)
04.06.2015 07:05 9,4 C 87 % 1027,8 hPa 0,0 l/m 0,0 km/h (0 Bft) W 273 0 min 0,000 mm 0,0 UV-I 100 W/m 7,3 C 9,4 C 0,0 km/h (0 Bft)
04.06.2015 07:10 9,4 C 87 % 1027,7 hPa 0,0 l/m 0,0 km/h (0 Bft) W 273 0 min 0,000 mm 0,0 UV-I 125 W/m 7,3 C 9,4 C 0,0 km/h (0 Bft)
04.06.2015 07:15 9,6 C 87 % 1027,8 hPa 0,0 l/m 0,0 km/h (0 Bft) W 273 5 min 0,000 mm 0,5 UV-I 149 W/m 7,5 C 9,6 C 0,0 km/h (0 Bft)
04.06.2015 07:20 9,7 C 87 % 1027,8 hPa 0,0 l/m 0,0 km/h (0 Bft) W 273 5 min 0,000 mm 0,5 UV-I 187 W/m 7,6 C 9,7 C 0,0 km/h (0 Bft)
04.06.2015 07:25 9,7 C 86 % 1027,7 hPa 0,0 l/m 0,0 km/h (0 Bft) W 273 5 min 0,000 mm 0,5 UV-I 200 W/m 7,5 C 9,7 C 0,0 km/h (0 Bft)
04.06.2015 07:30 10,0 C 86 % 1027,8 hPa 0,0 l/m 0,0 km/h (0 Bft) W 273 5 min 0,000 mm 0,6 UV-I 208 W/m 7,8 C 10,0 C 0,0 km/h (0 Bft)
04.06.2015 07:35 10,3 C 86 % 1027,8 hPa 0,0 l/m 0,0 km/h (0 Bft) W 273 5 min 0,000 mm 0,6 UV-I 227 W/m 8,1 C 10,3 C 0,0 km/h (0 Bft)
04.06.2015 07:40 10,8 C 85 % 1027,8 hPa 0,0 l/m 0,0 km/h (0 Bft) W 273 5 min 0,000 mm 0,7 UV-I 238 W/m 8,4 C 10,8 C 0,0 km/h (0 Bft)
04.06.2015 07:45 11,3 C 82 % 1027,8 hPa 0,0 l/m 0,0 km/h (0 Bft) W 269 5 min 0,000 mm 0,7 UV-I 252 W/m 8,3 C 11,3 C 0,0 km/h (0 Bft)
04.06.2015 07:50 11,3 C 81 % 1027,8 hPa 0,0 l/m 0,0 km/h (0 Bft) W 269 5 min 0,000 mm 0,7 UV-I 259 W/m 8,2 C 11,3 C 0,0 km/h (0 Bft)
04.06.2015 07:55 11,4 C 82 % 1027,8 hPa 0,0 l/m 0,0 km/h (0 Bft) W 269 5 min 0,000 mm 0,8 UV-I 276 W/m 8,4 C 11,4 C 0,0 km/h (0 Bft)
04.06.2015 08:00 11,6 C 81 % 1027,8 hPa 0,0 l/m 0,0 km/h (0 Bft) W 269 5 min 0,101 mm 0,9 UV-I 290 W/m 8,5 C 11,6 C 0,0 km/h (0 Bft)
04.06.2015 08:05 11,8 C 81 % 1027,8 hPa 0,0 l/m 0,0 km/h (0 Bft) W 269 5 min 0,000 mm 0,9 UV-I 301 W/m 8,6 C 11,8 C 0,0 km/h (0 Bft)
04.06.2015 08:10 12,1 C 80 % 1027,8 hPa 0,0 l/m 0,0 km/h (0 Bft) W 269 5 min 0,000 mm 1,0 UV-I 314 W/m 8,8 C 12,1 C 0,0 km/h (0 Bft)
04.06.2015 08:15 12,6 C 80 % 1027,7 hPa 0,0 l/m 0,0 km/h (0 Bft) W 269 5 min 0,000 mm 1,0 UV-I 329 W/m 9,2 C 12,6 C 0,0 km/h (0 Bft)
04.06.2015 08:20 13,2 C 77 % 1027,8 hPa 0,0 l/m 0,0 km/h (0 Bft) W 269 5 min 0,000 mm 1,1 UV-I 343 W/m 9,3 C 13,2 C 0,0 km/h (0 Bft)
04.06.2015 08:25 13,7 C 75 % 1027,7 hPa 0,0 l/m 0,0 km/h (0 Bft) W 269 5 min 0,000 mm 1,2 UV-I 357 W/m 9,3 C 13,7 C 0,0 km/h (0 Bft)
04.06.2015 08:30 14,3 C 71 % 1027,7 hPa 0,0 l/m 0,0 km/h (0 Bft) W-SW 244 5 min 0,000 mm 1,3 UV-I 370 W/m 9,1 C 14,3 C 0,0 km/h (0 Bft)
04.06.2015 08:35 15,0 C 70 % 1027,7 hPa 0,0 l/m 0,7 km/h (0 Bft) O-NO 62 5 min 0,000 mm 1,3 UV-I 385 W/m 9,6 C 15,0 C 6,4 km/h (2 Bft)
04.06.2015 08:40 15,7 C 66 % 1027,8 hPa 0,0 l/m 0,8 km/h (0 Bft) O 86 5 min 0,000 mm 1,4 UV-I 398 W/m 9,4 C 15,7 C 8,0 km/h (2 Bft)
04.06.2015 08:45 16,3 C 63 % 1027,8 hPa 0,0 l/m 2,2 km/h (1 Bft) NO 50 5 min 0,000 mm 1,5 UV-I 412 W/m 9,2 C 16,3 C 8,0 km/h (2 Bft)
04.06.2015 08:50 17,2 C 59 % 1027,7 hPa 0,0 l/m 3,0 km/h (1 Bft) O-NO 65 5 min 0,000 mm 1,6 UV-I 426 W/m 9,1 C 17,2 C 12,9 km/h (3 Bft)
04.06.2015 08:55 17,5 C 57 % 1027,7 hPa 0,0 l/m 5,3 km/h (1 Bft) NO 55 5 min 0,000 mm 1,7 UV-I 438 W/m 8,9 C 17,5 C 14,5 km/h (3 Bft)
04.06.2015 09:00 17,8 C 57 % 1027,7 hPa 0,0 l/m 2,4 km/h (1 Bft) O-NO 71 5 min 0,203 mm 1,8 UV-I 450 W/m 9,2 C 17,8 C 11,3 km/h (2 Bft)
04.06.2015 09:05 18,1 C 57 % 1027,7 hPa 0,0 l/m 0,7 km/h (0 Bft) NO 44 5 min 0,000 mm 1,9 UV-I 462 W/m 9,4 C 18,1 C 4,8 km/h (1 Bft)
04.06.2015 09:10 18,2 C 56 % 1027,8 hPa 0,0 l/m 2,7 km/h (1 Bft) NO 53 5 min 0,000 mm 2,0 UV-I 475 W/m 9,3 C 18,2 C 11,3 km/h (2 Bft)
04.06.2015 09:15 18,4 C 56 % 1027,8 hPa 0,0 l/m 2,0 km/h (1 Bft) NO 52 5 min 0,000 mm 2,1 UV-I 489 W/m 9,5 C 18,4 C 8,0 km/h (2 Bft)
04.06.2015 09:20 18,6 C 55 % 1027,8 hPa 0,0 l/m 1,3 km/h (1 Bft) NO 38 5 min 0,000 mm 2,2 UV-I 503 W/m 9,4 C 18,6 C 8,0 km/h (2 Bft)
04.06.2015 09:25 18,6 C 54 % 1027,7 hPa 0,0 l/m 4,2 km/h (1 Bft) O-NO 66 5 min 0,000 mm 2,3 UV-I 517 W/m 9,1 C 18,6 C 16,1 km/h (3 Bft)
04.06.2015 09:30 18,7 C 53 % 1027,7 hPa 0,0 l/m 4,7 km/h (1 Bft) O 99 5 min 0,000 mm 2,4 UV-I 529 W/m 8,9 C 18,7 C 11,3 km/h (2 Bft)
04.06.2015 09:35 18,3 C 56 % 1027,6 hPa 0,0 l/m 3,5 km/h (1 Bft) O 81 5 min 0,000 mm 2,5 UV-I 540 W/m 9,4 C 18,3 C 17,7 km/h (3 Bft)
04.06.2015 09:40 18,7 C 54 % 1027,8 hPa 0,0 l/m 1,4 km/h (1 Bft) O-NO 63 5 min 0,000 mm 2,7 UV-I 551 W/m 9,2 C 18,7 C 6,4 km/h (2 Bft)
04.06.2015 09:45 18,9 C 54 % 1027,7 hPa 0,0 l/m 0,0 km/h (0 Bft) O-NO 63 5 min 0,000 mm 2,8 UV-I 566 W/m 9,4 C 18,9 C 0,0 km/h (0 Bft)
04.06.2015 09:50 19,2 C 52 % 1027,7 hPa 0,0 l/m 0,9 km/h (0 Bft) O-NO 68 5 min 0,000 mm 2,9 UV-I 579 W/m 9,1 C 19,2 C 9,7 km/h (2 Bft)
04.06.2015 09:55 19,5 C 50 % 1027,7 hPa 0,0 l/m 1,0 km/h (0 Bft) O-NO 66 5 min 0,000 mm 3,0 UV-I 588 W/m 8,8 C 19,5 C 8,0 km/h (2 Bft)
04.06.2015 10:00 19,7 C 49 % 1027,7 hPa 0,0 l/m 0,8 km/h (0 Bft) O-NO 69 5 min 0,000 mm 3,1 UV-I 601 W/m 8,7 C 19,7 C 8,0 km/h (2 Bft)
04.06.2015 10:05 20,1 C 49 % 1027,7 hPa 0,0 l/m 3,9 km/h (1 Bft) O 86 5 min 0,305 mm 3,2 UV-I 614 W/m 9,0 C 20,1 C 14,5 km/h (3 Bft)
04.06.2015 10:10 20,0 C 46 % 1027,6 hPa 0,0 l/m 3,0 km/h (1 Bft) NO 55 5 min 0,000 mm 3,4 UV-I 626 W/m 8,0 C 20,0 C 12,9 km/h (3 Bft)
04.06.2015 10:15 20,3 C 47 % 1027,6 hPa 0,0 l/m 0,7 km/h (0 Bft) NO 55 5 min 0,000 mm 3,5 UV-I 638 W/m 8,6 C 20,3 C 6,4 km/h (2 Bft)
04.06.2015 10:20 21,2 C 45 % 1027,6 hPa 0,0 l/m 1,1 km/h (1 Bft) N-NO 20 5 min 0,000 mm 3,6 UV-I 650 W/m 8,8 C 21,2 C 8,0 km/h (2 Bft)
04.06.2015 10:25 20,4 C 43 % 1027,6 hPa 0,0 l/m 2,0 km/h (1 Bft) O-SO 103 5 min 0,000 mm 3,8 UV-I 661 W/m 7,4 C 20,4 C 9,7 km/h (2 Bft)
04.06.2015 10:30 20,4 C 45 % 1027,5 hPa 0,0 l/m 1,6 km/h (1 Bft) O-SO 118 5 min 0,000 mm 3,9 UV-I 672 W/m 8,1 C 20,4 C 8,0 km/h (2 Bft)
04.06.2015 10:35 19,9 C 44 % 1027,6 hPa 0,0 l/m 4,4 km/h (1 Bft) O 86 5 min 0,000 mm 4,0 UV-I 681 W/m 7,3 C 19,9 C 16,1 km/h (3 Bft)
04.06.2015 10:40 19,0 C 47 % 1027,6 hPa 0,0 l/m 6,5 km/h (2 Bft) O-NO 71 5 min 0,000 mm 4,1 UV-I 693 W/m 7,4 C 19,0 C 12,9 km/h (3 Bft)
04.06.2015 10:45 20,2 C 45 % 1027,5 hPa 0,0 l/m 2,8 km/h (1 Bft) NO 42 5 min 0,000 mm 4,3 UV-I 703 W/m 7,9 C 20,2 C 11,3 km/h (2 Bft)
04.06.2015 10:50 20,2 C 45 % 1027,5 hPa 0,0 l/m 3,6 km/h (1 Bft) O-NO 72 5 min 0,000 mm 4,4 UV-I 711 W/m 7,9 C 20,2 C 11,3 km/h (2 Bft)
04.06.2015 10:55 20,8 C 44 % 1027,5 hPa 0,0 l/m 6,5 km/h (2 Bft) O-NO 69 5 min 0,000 mm 4,5 UV-I 722 W/m 8,1 C 20,8 C 12,9 km/h (3 Bft)
04.06.2015 11:00 19,6 C 45 % 1027,5 hPa 0,0 l/m 3,2 km/h (1 Bft) O-SO 123 5 min 0,000 mm 4,6 UV-I 728 W/m 7,3 C 19,6 C 11,3 km/h (2 Bft)
04.06.2015 11:05 19,2 C 47 % 1027,4 hPa 0,0 l/m 1,1 km/h (1 Bft) SO 134 5 min 0,407 mm 4,7 UV-I 738 W/m 7,6 C 19,2 C 6,4 km/h (2 Bft)
04.06.2015 11:10 20,3 C 46 % 1027,4 hPa 0,0 l/m 4,5 km/h (1 Bft) NO 44 5 min 0,000 mm 4,8 UV-I 746 W/m 8,3 C 20,3 C 11,3 km/h (2 Bft)
04.06.2015 11:15 21,2 C 43 % 1027,4 hPa 0,0 l/m 5,0 km/h (1 Bft) N-NO 32 5 min 0,000 mm 5,0 UV-I 758 W/m 8,1 C 21,2 C 14,5 km/h (3 Bft)
04.06.2015 11:20 20,7 C 43 % 1027,4 hPa 0,0 l/m 3,3 km/h (1 Bft) O-SO 106 5 min 0,000 mm 5,1 UV-I 763 W/m 7,7 C 20,7 C 11,3 km/h (2 Bft)
04.06.2015 11:25 19,4 C 46 % 1027,4 hPa 0,0 l/m 4,0 km/h (1 Bft) O 88 5 min 0,000 mm 5,2 UV-I 774 W/m 7,5 C 19,4 C 9,7 km/h (2 Bft)
04.06.2015 11:30 19,6 C 45 % 1027,4 hPa 0,0 l/m 5,3 km/h (1 Bft) O-NO 67 5 min 0,000 mm 5,3 UV-I 781 W/m 7,3 C 19,6 C 14,5 km/h (3 Bft)
04.06.2015 11:35 20,1 C 45 % 1027,4 hPa 0,0 l/m 1,0 km/h (0 Bft) N-NO 13 5 min 0,000 mm 5,4 UV-I 790 W/m 7,8 C 20,1 C 4,8 km/h (1 Bft)
04.06.2015 11:40 20,7 C 45 % 1027,4 hPa 0,0 l/m 4,9 km/h (1 Bft) NO 53 5 min 0,000 mm 5,5 UV-I 801 W/m 8,3 C 20,7 C 17,7 km/h (3 Bft)
04.06.2015 11:45 21,8 C 42 % 1027,3 hPa 0,0 l/m 1,7 km/h (1 Bft) NO 38 5 min 0,000 mm 5,6 UV-I 816 W/m 8,3 C 21,8 C 8,0 km/h (2 Bft)
04.06.2015 11:50 22,8 C 41 % 1027,4 hPa 0,0 l/m 4,5 km/h (1 Bft) N-NO 22 5 min 0,000 mm 5,7 UV-I 823 W/m 8,9 C 22,8 C 17,7 km/h (3 Bft)
04.06.2015 11:55 21,8 C 40 % 1027,3 hPa 0,0 l/m 0,3 km/h (0 Bft) W 271 5 min 0,000 mm 5,8 UV-I 820 W/m 7,6 C 21,8 C 3,2 km/h (1 Bft)
04.06.2015 12:00 22,0 C 44 % 1027,3 hPa 0,0 l/m 0,2 km/h (0 Bft) O-NO 67 5 min 0,000 mm 5,8 UV-I 811 W/m 9,2 C 22,0 C 3,2 km/h (1 Bft)
04.06.2015 12:05 22,7 C 42 % 1027,3 hPa 0,0 l/m 1,8 km/h (1 Bft) NO 55 5 min 0,482 mm 5,9 UV-I 822 W/m 9,1 C 22,7 C 8,0 km/h (2 Bft)
04.06.2015 12:10 23,3 C 39 % 1027,2 hPa 0,0 l/m 1,2 km/h (1 Bft) O-SO 113 5 min 0,000 mm 6,1 UV-I 836 W/m 8,6 C 23,3 C 6,4 km/h (2 Bft)
04.06.2015 12:15 22,8 C 40 % 1027,2 hPa 0,0 l/m 1,3 km/h (1 Bft) O 90 5 min 0,000 mm 6,1 UV-I 840 W/m 8,5 C 22,8 C 6,4 km/h (2 Bft)
04.06.2015 12:20 21,2 C 44 % 1027,1 hPa 0,0 l/m 3,0 km/h (1 Bft) SO 135 5 min 0,000 mm 6,1 UV-I 843 W/m 8,5 C 21,2 C 9,7 km/h (2 Bft)
04.06.2015 12:25 20,4 C 47 % 1027,0 hPa 0,0 l/m 6,0 km/h (2 Bft) O-NO 78 5 min 0,000 mm 6,3 UV-I 852 W/m 8,7 C 20,4 C 16,1 km/h (3 Bft)
04.06.2015 12:30 22,2 C 45 % 1027,0 hPa 0,0 l/m 2,7 km/h (1 Bft) O 88 5 min 0,000 mm 6,4 UV-I 863 W/m 9,7 C 22,2 C 11,3 km/h (2 Bft)
04.06.2015 12:35 21,8 C 41 % 1027,0 hPa 0,0 l/m 3,5 km/h (1 Bft) SO 126 5 min 0,000 mm 6,4 UV-I 865 W/m 8,0 C 21,8 C 11,3 km/h (2 Bft)
04.06.2015 12:40 20,9 C 45 % 1027,0 hPa 0,0 l/m 3,6 km/h (1 Bft) O-NO 61 5 min 0,000 mm 6,5 UV-I 869 W/m 8,5 C 20,9 C 8,0 km/h (2 Bft)
04.06.2015 12:45 20,8 C 44 % 1026,9 hPa 0,0 l/m 4,6 km/h (1 Bft) S-SO 148 5 min 0,000 mm 6,5 UV-I 868 W/m 8,1 C 20,8 C 19,3 km/h (3 Bft)
04.06.2015 12:50 20,7 C 44 % 1026,8 hPa 0,0 l/m 5,9 km/h (2 Bft) SO 125 5 min 0,000 mm 6,6 UV-I 873 W/m 8,0 C 20,7 C 17,7 km/h (3 Bft)
04.06.2015 12:55 21,6 C 43 % 1026,9 hPa 0,0 l/m 5,3 km/h (1 Bft) O-NO 71 5 min 0,000 mm 6,6 UV-I 874 W/m 8,5 C 21,6 C 16,1 km/h (3 Bft)
04.06.2015 13:00 23,1 C 38 % 1026,8 hPa 0,0 l/m 1,4 km/h (1 Bft) O-SO 103 5 min 0,000 mm 6,6 UV-I 870 W/m 8,0 C 23,1 C 6,4 km/h (2 Bft)
04.06.2015 13:05 22,3 C 40 % 1026,8 hPa 0,0 l/m 1,5 km/h (1 Bft) S-SO 161 5 min 0,534 mm 6,7 UV-I 887 W/m 8,0 C 22,3 C 6,4 km/h (2 Bft)
04.06.2015 13:10 21,1 C 43 % 1026,8 hPa 0,0 l/m 6,4 km/h (2 Bft) SO 130 5 min 0,000 mm 6,7 UV-I 881 W/m 8,0 C 21,1 C 14,5 km/h (3 Bft)
04.06.2015 13:15 20,4 C 46 % 1026,6 hPa 0,0 l/m 3,0 km/h (1 Bft) SO 136 5 min 0,000 mm 6,7 UV-I 882 W/m 8,4 C 20,4 C 11,3 km/h (2 Bft)
04.06.2015 13:20 21,7 C 43 % 1026,5 hPa 0,0 l/m 4,1 km/h (1 Bft) O-SO 113 5 min 0,000 mm 6,7 UV-I 882 W/m 8,6 C 21,7 C 14,5 km/h (3 Bft)
04.06.2015 13:25 22,6 C 41 % 1026,5 hPa 0,0 l/m 6,0 km/h (2 Bft) O-NO 73 5 min 0,000 mm 6,7 UV-I 883 W/m 8,7 C 22,6 C 16,1 km/h (3 Bft)
04.06.2015 13:30 23,3 C 40 % 1026,5 hPa 0,0 l/m 2,0 km/h (1 Bft) NO 44 5 min 0,000 mm 6,7 UV-I 887 W/m 8,9 C 23,3 C 11,3 km/h (2 Bft)
04.06.2015 13:35 23,4 C 38 % 1026,4 hPa 0,0 l/m 3,3 km/h (1 Bft) O 86 5 min 0,000 mm 6,7 UV-I 885 W/m 8,3 C 23,4 C 14,5 km/h (3 Bft)
04.06.2015 13:40 23,0 C 39 % 1026,4 hPa 0,0 l/m 3,3 km/h (1 Bft) NO 51 5 min 0,000 mm 6,7 UV-I 888 W/m 8,3 C 23,0 C 11,3 km/h (2 Bft)
04.06.2015 13:45 21,6 C 42 % 1026,4 hPa 0,0 l/m 7,4 km/h (2 Bft) O 101 5 min 0,000 mm 6,7 UV-I 883 W/m 8,1 C 21,2 C 14,5 km/h (3 Bft)
04.06.2015 13:50 22,2 C 43 % 1026,3 hPa 0,0 l/m 2,1 km/h (1 Bft) S 180 5 min 0,000 mm 6,6 UV-I 882 W/m 9,0 C 22,2 C 8,0 km/h (2 Bft)
04.06.2015 13:55 23,9 C 38 % 1026,3 hPa 0,0 l/m 3,5 km/h (1 Bft) NO 47 5 min 0,000 mm 6,6 UV-I 884 W/m 8,7 C 23,9 C 9,7 km/h (2 Bft)
04.06.2015 14:00 23,0 C 40 % 1026,3 hPa 0,0 l/m 4,2 km/h (1 Bft) O 98 5 min 0,000 mm 6,6 UV-I 882 W/m 8,7 C 23,0 C 12,9 km/h (3 Bft)
04.06.2015 14:05 22,5 C 41 % 1026,3 hPa 0,0 l/m 2,6 km/h (1 Bft) SW 222 5 min 0,558 mm 6,5 UV-I 881 W/m 8,6 C 22,5 C 11,3 km/h (2 Bft)
04.06.2015 14:10 22,6 C 39 % 1026,2 hPa 0,0 l/m 2,9 km/h (1 Bft) O-NO 67 5 min 0,000 mm 6,5 UV-I 881 W/m 7,9 C 22,6 C 11,3 km/h (2 Bft)
04.06.2015 14:15 22,0 C 41 % 1026,1 hPa 0,0 l/m 6,0 km/h (2 Bft) NO 55 5 min 0,000 mm 6,4 UV-I 879 W/m 8,1 C 22,0 C 17,7 km/h (3 Bft)
04.06.2015 14:20 22,9 C 39 % 1026,2 hPa 0,0 l/m 4,0 km/h (1 Bft) O-SO 118 5 min 0,000 mm 6,4 UV-I 876 W/m 8,2 C 22,9 C 11,3 km/h (2 Bft)
04.06.2015 14:25 23,2 C 38 % 1026,1 hPa 0,0 l/m 3,0 km/h (1 Bft) O-NO 65 5 min 0,000 mm 6,3 UV-I 874 W/m 8,1 C 23,2 C 11,3 km/h (2 Bft)
04.06.2015 14:30 23,5 C 38 % 1026,1 hPa 0,0 l/m 5,7 km/h (1 Bft) O-NO 63 5 min 0,000 mm 6,3 UV-I 876 W/m 8,4 C 23,5 C 14,5 km/h (3 Bft)
04.06.2015 14:35 22,7 C 38 % 1026,0 hPa 0,0 l/m 3,3 km/h (1 Bft) O-SO 123 5 min 0,000 mm 6,2 UV-I 872 W/m 7,6 C 22,7 C 14,5 km/h (3 Bft)
04.06.2015 14:40 22,9 C 38 % 1026,0 hPa 0,0 l/m 4,0 km/h (1 Bft) S-SO 162 5 min 0,000 mm 6,1 UV-I 862 W/m 7,8 C 22,9 C 12,9 km/h (3 Bft)
04.06.2015 14:45 23,5 C 38 % 1026,0 hPa 0,0 l/m 1,6 km/h (1 Bft) O 98 5 min 0,000 mm 6,0 UV-I 862 W/m 8,4 C 23,5 C 11,3 km/h (2 Bft)
04.06.2015 14:50 23,9 C 37 % 1025,9 hPa 0,0 l/m 3,4 km/h (1 Bft) NO 54 5 min 0,000 mm 6,0 UV-I 856 W/m 8,3 C 23,9 C 11,3 km/h (2 Bft)
04.06.2015 14:55 22,8 C 38 % 1025,9 hPa 0,0 l/m 3,1 km/h (1 Bft) S-SO 155 5 min 0,000 mm 5,9 UV-I 852 W/m 7,7 C 22,8 C 11,3 km/h (2 Bft)
04.06.2015 15:00 23,4 C 39 % 1025,8 hPa 0,0 l/m 3,8 km/h (1 Bft) O-SO 111 5 min 0,000 mm 5,8 UV-I 845 W/m 8,6 C 23,4 C 16,1 km/h (3 Bft)
04.06.2015 15:05 23,5 C 38 % 1025,8 hPa 0,0 l/m 5,6 km/h (1 Bft) O-NO 63 5 min 0,559 mm 5,7 UV-I 840 W/m 8,4 C 23,5 C 16,1 km/h (3 Bft)
04.06.2015 15:10 23,8 C 35 % 1025,8 hPa 0,0 l/m 5,7 km/h (1 Bft) O-NO 76 5 min 0,000 mm 5,6 UV-I 830 W/m 7,4 C 23,8 C 16,1 km/h (3 Bft)
04.06.2015 15:15 23,7 C 39 % 1025,7 hPa 0,0 l/m 5,4 km/h (1 Bft) O-NO 75 5 min 0,000 mm 5,5 UV-I 824 W/m 8,9 C 23,7 C 12,9 km/h (3 Bft)
04.06.2015 15:20 24,4 C 36 % 1025,6 hPa 0,0 l/m 3,6 km/h (1 Bft) S 178 5 min 0,000 mm 5,4 UV-I 821 W/m 8,4 C 24,4 C 12,9 km/h (3 Bft)
04.06.2015 15:25 23,5 C 38 % 1025,6 hPa 0,0 l/m 4,7 km/h (1 Bft) O 84 5 min 0,000 mm 5,3 UV-I 816 W/m 8,4 C 23,5 C 17,7 km/h (3 Bft)
04.06.2015 15:30 24,1 C 37 % 1025,5 hPa 0,0 l/m 8,7 km/h (2 Bft) NO 56 5 min 0,000 mm 5,2 UV-I 810 W/m 8,5 C 23,5 C 16,1 km/h (3 Bft)
04.06.2015 15:35 23,6 C 36 % 1025,5 hPa 0,0 l/m 6,7 km/h (2 Bft) O 101 5 min 0,000 mm 5,1 UV-I 804 W/m 7,6 C 23,5 C 16,1 km/h (3 Bft)
04.06.2015 15:40 23,3 C 37 % 1025,3 hPa 0,0 l/m 6,5 km/h (2 Bft) O-SO 102 5 min 0,000 mm 4,9 UV-I 796 W/m 7,8 C 23,3 C 14,5 km/h (3 Bft)
04.06.2015 15:45 22,6 C 38 % 1025,3 hPa 0,0 l/m 8,1 km/h (2 Bft) O-NO 61 5 min 0,000 mm 4,9 UV-I 790 W/m 7,6 C 22,1 C 16,1 km/h (3 Bft)
04.06.2015 15:50 22,3 C 38 % 1025,3 hPa 0,0 l/m 7,8 km/h (2 Bft) S-SO 157 5 min 0,000 mm 4,7 UV-I 780 W/m 7,3 C 21,8 C 16,1 km/h (3 Bft)
04.06.2015 15:55 23,3 C 38 % 1025,2 hPa 0,0 l/m 2,2 km/h (1 Bft) NO 56 5 min 0,000 mm 4,6 UV-I 776 W/m 8,2 C 23,3 C 6,4 km/h (2 Bft)
04.06.2015 16:00 24,6 C 37 % 1025,2 hPa 0,0 l/m 3,2 km/h (1 Bft) O-NO 69 5 min 0,000 mm 4,5 UV-I 770 W/m 8,9 C 24,6 C 14,5 km/h (3 Bft)
04.06.2015 16:05 24,6 C 33 % 1025,2 hPa 0,0 l/m 1,1 km/h (1 Bft) NO 42 5 min 0,559 mm 4,3 UV-I 755 W/m 7,2 C 24,6 C 6,4 km/h (2 Bft)
04.06.2015 16:10 24,2 C 35 % 1025,1 hPa 0,0 l/m 1,4 km/h (1 Bft) O-SO 105 5 min 0,000 mm 4,2 UV-I 749 W/m 7,8 C 24,2 C 8,0 km/h (2 Bft)
04.06.2015 16:15 23,3 C 38 % 1025,0 hPa 0,0 l/m 3,6 km/h (1 Bft) O-SO 102 5 min 0,000 mm 4,0 UV-I 715 W/m 8,2 C 23,3 C 14,5 km/h (3 Bft)
04.06.2015 16:20 23,2 C 36 % 1025,0 hPa 0,0 l/m 7,7 km/h (2 Bft) O-NO 66 5 min 0,000 mm 4,0 UV-I 738 W/m 7,3 C 22,8 C 14,5 km/h (3 Bft)
04.06.2015 16:25 23,3 C 36 % 1025,0 hPa 0,0 l/m 5,0 km/h (1 Bft) O 93 5 min 0,000 mm 3,7 UV-I 692 W/m 7,4 C 23,3 C 14,5 km/h (3 Bft)
04.06.2015 16:30 23,6 C 37 % 1024,9 hPa 0,0 l/m 3,7 km/h (1 Bft) O-SO 113 5 min 0,000 mm 3,5 UV-I 668 W/m 8,0 C 23,6 C 14,5 km/h (3 Bft)
04.06.2015 16:35 24,3 C 35 % 1024,9 hPa 0,0 l/m 1,6 km/h (1 Bft) O 99 5 min 0,000 mm 3,4 UV-I 614 W/m 7,8 C 24,3 C 11,3 km/h (2 Bft)
04.06.2015 16:40 24,1 C 38 % 1024,8 hPa 0,0 l/m 1,0 km/h (0 Bft) O-NO 62 5 min 0,000 mm 3,3 UV-I 642 W/m 8,9 C 24,1 C 4,8 km/h (1 Bft)
04.06.2015 16:45 24,3 C 36 % 1024,8 hPa 0,0 l/m 5,4 km/h (1 Bft) NO 52 5 min 0,000 mm 3,2 UV-I 663 W/m 8,3 C 24,3 C 9,7 km/h (2 Bft)
04.06.2015 16:50 24,5 C 34 % 1024,7 hPa 0,0 l/m 2,4 km/h (1 Bft) O-NO 58 5 min 0,000 mm 3,3 UV-I 687 W/m 7,6 C 24,5 C 12,9 km/h (3 Bft)
04.06.2015 16:55 25,3 C 33 % 1024,6 hPa 0,0 l/m 1,5 km/h (1 Bft) O-SO 105 5 min 0,000 mm 3,1 UV-I 676 W/m 7,9 C 25,3 C 8,0 km/h (2 Bft)
04.06.2015 17:00 24,1 C 33 % 1024,6 hPa 0,0 l/m 3,3 km/h (1 Bft) SO 124 5 min 0,000 mm 3,0 UV-I 654 W/m 6,8 C 24,1 C 12,9 km/h (3 Bft)
04.06.2015 17:05 24,3 C 36 % 1024,5 hPa 0,0 l/m 1,7 km/h (1 Bft) N-NO 31 5 min 0,457 mm 2,9 UV-I 638 W/m 8,3 C 24,3 C 11,3 km/h (2 Bft)
04.06.2015 17:10 25,2 C 34 % 1024,4 hPa 0,0 l/m 3,5 km/h (1 Bft) NO 41 5 min 0,000 mm 2,8 UV-I 628 W/m 8,2 C 25,2 C 11,3 km/h (2 Bft)
04.06.2015 17:15 23,8 C 36 % 1024,4 hPa 0,0 l/m 6,8 km/h (2 Bft) SO 130 5 min 0,000 mm 2,6 UV-I 615 W/m 7,8 C 23,7 C 14,5 km/h (3 Bft)
04.06.2015 17:20 24,2 C 36 % 1024,3 hPa 0,0 l/m 3,3 km/h (1 Bft) NO 46 5 min 0,000 mm 2,5 UV-I 600 W/m 8,2 C 24,2 C 11,3 km/h (2 Bft)
04.06.2015 17:25 24,6 C 34 % 1024,4 hPa 0,0 l/m 5,4 km/h (1 Bft) O-SO 105 5 min 0,000 mm 2,4 UV-I 586 W/m 7,7 C 24,6 C 11,3 km/h (2 Bft)
04.06.2015 17:30 24,6 C 36 % 1024,2 hPa 0,0 l/m 2,8 km/h (1 Bft) NO 49 5 min 0,000 mm 2,3 UV-I 574 W/m 8,5 C 24,6 C 8,0 km/h (2 Bft)
04.06.2015 17:35 24,0 C 36 % 1024,2 hPa 0,0 l/m 3,0 km/h (1 Bft) O-SO 121 5 min 0,000 mm 2,2 UV-I 562 W/m 8,0 C 24,0 C 11,3 km/h (2 Bft)
04.06.2015 17:40 23,9 C 38 % 1024,1 hPa 0,0 l/m 0,5 km/h (0 Bft) S-SO 155 5 min 0,000 mm 2,1 UV-I 548 W/m 8,7 C 23,9 C 4,8 km/h (1 Bft)
04.06.2015 17:45 24,0 C 37 % 1024,0 hPa 0,0 l/m 3,7 km/h (1 Bft) NO 49 5 min 0,000 mm 2,0 UV-I 535 W/m 8,4 C 24,0 C 11,3 km/h (2 Bft)
04.06.2015 17:50 24,1 C 36 % 1023,9 hPa 0,0 l/m 2,3 km/h (1 Bft) O 85 5 min 0,000 mm 1,9 UV-I 524 W/m 8,1 C 24,1 C 8,0 km/h (2 Bft)
04.06.2015 17:55 24,2 C 38 % 1023,9 hPa 0,0 l/m 1,6 km/h (1 Bft) N-NO 21 5 min 0,000 mm 1,8 UV-I 508 W/m 9,0 C 24,2 C 12,9 km/h (3 Bft)
04.06.2015 18:00 24,7 C 37 % 1023,8 hPa 0,0 l/m 0,5 km/h (0 Bft) N-NO 33 5 min 0,000 mm 1,7 UV-I 497 W/m 9,0 C 24,7 C 4,8 km/h (1 Bft)
04.06.2015 18:05 24,4 C 37 % 1023,7 hPa 0,0 l/m 6,0 km/h (2 Bft) O-NO 57 5 min 0,381 mm 1,6 UV-I 485 W/m 8,8 C 24,4 C 11,3 km/h (2 Bft)
04.06.2015 18:10 24,0 C 37 % 1023,7 hPa 0,0 l/m 6,5 km/h (2 Bft) O-SO 105 5 min 0,000 mm 1,5 UV-I 468 W/m 8,4 C 24,0 C 12,9 km/h (3 Bft)
04.06.2015 18:15 23,7 C 38 % 1023,7 hPa 0,0 l/m 3,8 km/h (1 Bft) N 10 5 min 0,000 mm 1,4 UV-I 455 W/m 8,5 C 23,7 C 12,9 km/h (3 Bft)
04.06.2015 18:20 23,9 C 38 % 1023,6 hPa 0,0 l/m 1,6 km/h (1 Bft) O 99 5 min 0,000 mm 1,3 UV-I 441 W/m 8,7 C 23,9 C 12,9 km/h (3 Bft)
04.06.2015 18:25 23,7 C 39 % 1023,7 hPa 0,0 l/m 6,4 km/h (2 Bft) O 90 5 min 0,000 mm 1,3 UV-I 430 W/m 8,9 C 23,7 C 12,9 km/h (3 Bft)
04.06.2015 18:30 23,8 C 39 % 1023,6 hPa 0,0 l/m 1,7 km/h (1 Bft) O-NO 68 5 min 0,000 mm 1,2 UV-I 417 W/m 9,0 C 23,8 C 4,8 km/h (1 Bft)
04.06.2015 18:35 23,8 C 39 % 1023,6 hPa 0,0 l/m 1,6 km/h (1 Bft) O-NO 67 5 min 0,000 mm 1,1 UV-I 403 W/m 9,0 C 23,8 C 8,0 km/h (2 Bft)
04.06.2015 18:40 23,7 C 39 % 1023,5 hPa 0,0 l/m 1,6 km/h (1 Bft) O-NO 67 5 min 0,000 mm 1,1 UV-I 390 W/m 8,9 C 23,7 C 8,0 km/h (2 Bft)
04.06.2015 18:40 23,7 C 39 % 1023,5 hPa 0,0 l/m 0,0 km/h (0 Bft) NO 55 0 min 0,000 mm 1,0 UV-I 383 W/m 8,9 C 23,7 C 0,0 km/h (0 Bft)
04.06.2015 18:45 23,9 C 39 % 1023,5 hPa 0,0 l/m 2,4 km/h (1 Bft) O-SO 103 5 min 0,000 mm 1,0 UV-I 376 W/m 9,1 C 23,9 C 11,3 km/h (2 Bft)
04.06.2015 18:50 23,4 C 39 % 1023,4 hPa 0,0 l/m 6,9 km/h (2 Bft) O-NO 74 5 min 0,000 mm 0,9 UV-I 360 W/m 8,6 C 23,3 C 12,9 km/h (3 Bft)
04.06.2015 18:55 23,4 C 40 % 1023,4 hPa 0,0 l/m 3,2 km/h (1 Bft) NO 48 5 min 0,000 mm 0,9 UV-I 347 W/m 9,0 C 23,4 C 8,0 km/h (2 Bft)
04.06.2015 19:00 23,5 C 40 % 1023,4 hPa 0,0 l/m 2,2 km/h (1 Bft) O 84 5 min 0,305 mm 0,8 UV-I 332 W/m 9,1 C 23,5 C 11,3 km/h (2 Bft)
04.06.2015 19:05 23,4 C 40 % 1023,3 hPa 0,0 l/m 2,4 km/h (1 Bft) O-NO 60 5 min 0,000 mm 0,8 UV-I 319 W/m 9,0 C 23,4 C 8,0 km/h (2 Bft)
04.06.2015 19:10 23,3 C 41 % 1023,3 hPa 0,0 l/m 1,7 km/h (1 Bft) O 98 5 min 0,000 mm 0,7 UV-I 306 W/m 9,3 C 23,3 C 8,0 km/h (2 Bft)
04.06.2015 19:15 23,6 C 41 % 1023,2 hPa 0,0 l/m 0,0 km/h (0 Bft) O 80 5 min 0,000 mm 0,6 UV-I 292 W/m 9,6 C 23,6 C 1,6 km/h (1 Bft)
04.06.2015 19:20 23,6 C 41 % 1023,2 hPa 0,0 l/m 1,6 km/h (1 Bft) O-NO 64 5 min 0,000 mm 0,6 UV-I 278 W/m 9,6 C 23,6 C 8,0 km/h (2 Bft)
04.06.2015 19:25 23,4 C 42 % 1023,2 hPa 0,0 l/m 2,0 km/h (1 Bft) O-NO 66 5 min 0,000 mm 0,5 UV-I 264 W/m 9,7 C 23,4 C 9,7 km/h (2 Bft)
04.06.2015 19:30 23,4 C 41 % 1023,1 hPa 0,0 l/m 2,4 km/h (1 Bft) O-NO 71 5 min 0,000 mm 0,5 UV-I 249 W/m 9,4 C 23,4 C 11,3 km/h (2 Bft)
04.06.2015 19:35 23,2 C 42 % 1023,1 hPa 0,0 l/m 2,8 km/h (1 Bft) NO 40 5 min 0,000 mm 0,5 UV-I 236 W/m 9,6 C 23,2 C 14,5 km/h (3 Bft)
04.06.2015 19:40 23,5 C 42 % 1023,1 hPa 0,0 l/m 0,1 km/h (0 Bft) N-NO 26 5 min 0,000 mm 0,0 UV-I 221 W/m 9,8 C 23,5 C 1,6 km/h (1 Bft)
04.06.2015 19:45 23,8 C 41 % 1023,1 hPa 0,0 l/m 0,0 km/h (0 Bft) N-NO 27 5 min 0,000 mm 0,0 UV-I 205 W/m 9,7 C 23,8 C 0,0 km/h (0 Bft)
04.06.2015 19:50 23,7 C 41 % 1023,1 hPa 0,0 l/m 1,7 km/h (1 Bft) O-NO 74 5 min 0,000 mm 0,0 UV-I 191 W/m 9,7 C 23,7 C 8,0 km/h (2 Bft)
04.06.2015 19:55 23,3 C 41 % 1023,0 hPa 0,0 l/m 1,8 km/h (1 Bft) NO 43 5 min 0,000 mm 0,0 UV-I 175 W/m 9,3 C 23,3 C 8,0 km/h (2 Bft)
04.06.2015 20:00 23,2 C 42 % 1023,0 hPa 0,0 l/m 1,0 km/h (0 Bft) O-NO 63 5 min 0,178 mm 0,0 UV-I 160 W/m 9,6 C 23,2 C 4,8 km/h (1 Bft)
04.06.2015 20:05 23,0 C 43 % 1023,0 hPa 0,0 l/m 0,8 km/h (0 Bft) NO 55 5 min 0,000 mm 0,0 UV-I 144 W/m 9,7 C 23,0 C 6,4 km/h (2 Bft)
04.06.2015 20:10 22,9 C 43 % 1023,0 hPa 0,0 l/m 0,1 km/h (0 Bft) O-NO 68 5 min 0,000 mm 0,0 UV-I 129 W/m 9,6 C 22,9 C 1,6 km/h (1 Bft)
04.06.2015 20:15 22,8 C 43 % 1023,0 hPa 0,0 l/m 0,1 km/h (0 Bft) O-NO 59 5 min 0,000 mm 0,0 UV-I 116 W/m 9,6 C 22,8 C 1,6 km/h (1 Bft)
04.06.2015 20:20 22,6 C 44 % 1022,9 hPa 0,0 l/m 0,0 km/h (0 Bft) O-NO 59 5 min 0,000 mm 0,0 UV-I 103 W/m 9,7 C 22,6 C 1,6 km/h (1 Bft)
04.06.2015 20:25 22,6 C 44 % 1022,9 hPa 0,0 l/m 0,5 km/h (0 Bft) O-NO 72 5 min 0,000 mm 0,0 UV-I 90 W/m 9,7 C 22,6 C 4,8 km/h (1 Bft)
04.06.2015 20:30 22,4 C 45 % 1022,9 hPa 0,0 l/m 0,3 km/h (0 Bft) O-NO 63 5 min 0,000 mm 0,0 UV-I 79 W/m 9,9 C 22,4 C 6,4 km/h (2 Bft)
04.06.2015 20:35 22,3 C 45 % 1022,9 hPa 0,0 l/m 0,2 km/h (0 Bft) O-NO 65 5 min 0,000 mm 0,0 UV-I 67 W/m 9,8 C 22,3 C 3,2 km/h (1 Bft)
04.06.2015 20:40 22,2 C 45 % 1022,9 hPa 0,0 l/m 0,0 km/h (0 Bft) NO 48 0 min 0,000 mm 0,0 UV-I 57 W/m 9,7 C 22,2 C 0,0 km/h (0 Bft)
04.06.2015 20:45 22,2 C 46 % 1022,9 hPa 0,0 l/m 0,0 km/h (0 Bft) NO 48 0 min 0,000 mm 0,0 UV-I 48 W/m 10,0 C 22,2 C 0,0 km/h (0 Bft)
04.06.2015 20:50 22,3 C 46 % 1022,9 hPa 0,0 l/m 0,0 km/h (0 Bft) NO 47 0 min 0,000 mm 0,0 UV-I 39 W/m 10,1 C 22,3 C 0,0 km/h (0 Bft)
04.06.2015 20:55 22,3 C 45 % 1022,9 hPa 0,0 l/m 0,0 km/h (0 Bft) NO 47 0 min 0,000 mm 0,0 UV-I 26 W/m 9,8 C 22,3 C 0,0 km/h (0 Bft)
04.06.2015 21:00 22,2 C 46 % 1022,9 hPa 0,0 l/m 0,0 km/h (0 Bft) NO 47 0 min 0,051 mm 0,0 UV-I 19 W/m 10,0 C 22,2 C 0,0 km/h (0 Bft)
04.06.2015 21:05 22,0 C 47 % 1022,8 hPa 0,0 l/m 0,0 km/h (0 Bft) NO 47 0 min 0,000 mm 0,0 UV-I 16 W/m 10,2 C 22,0 C 0,0 km/h (0 Bft)
04.06.2015 21:10 21,7 C 47 % 1022,8 hPa 0,0 l/m 0,0 km/h (0 Bft) NO 47 0 min 0,000 mm 0,0 UV-I 14 W/m 9,9 C 21,7 C 0,0 km/h (0 Bft)
04.06.2015 21:15 21,3 C 49 % 1022,8 hPa 0,0 l/m 0,0 km/h (0 Bft) NO 47 0 min 0,000 mm 0,0 UV-I 12 W/m 10,1 C 21,3 C 0,0 km/h (0 Bft)
04.06.2015 21:20 20,9 C 50 % 1022,8 hPa 0,0 l/m 0,0 km/h (0 Bft) NO 47 0 min 0,000 mm 0,0 UV-I 10 W/m 10,1 C 20,9 C 0,0 km/h (0 Bft)
04.06.2015 21:25 20,6 C 51 % 1022,9 hPa 0,0 l/m 0,0 km/h (0 Bft) NO 47 0 min 0,000 mm 0,0 UV-I 8 W/m 10,1 C 20,6 C 0,0 km/h (0 Bft)
04.06.2015 21:30 20,3 C 52 % 1022,8 hPa 0,0 l/m 0,0 km/h (0 Bft) NO 47 0 min 0,000 mm 0,0 UV-I 6 W/m 10,1 C 20,3 C 0,0 km/h (0 Bft)
04.06.2015 21:35 19,9 C 53 % 1022,9 hPa 0,0 l/m 0,0 km/h (0 Bft) NO 47 0 min 0,000 mm 0,0 UV-I 2 W/m 10,0 C 19,9 C 0,0 km/h (0 Bft)
04.06.2015 21:40 19,6 C 54 % 1022,9 hPa 0,0 l/m 0,0 km/h (0 Bft) NO 47 0 min 0,000 mm 0,0 UV-I 0 W/m 10,0 C 19,6 C 0,0 km/h (0 Bft)
04.06.2015 21:45 19,3 C 54 % 1022,9 hPa 0,0 l/m 0,0 km/h (0 Bft) NO 47 0 min 0,000 mm 0,0 UV-I 0 W/m 9,8 C 19,3 C 0,0 km/h (0 Bft)
04.06.2015 21:50 19,0 C 55 % 1022,9 hPa 0,0 l/m 0,0 km/h (0 Bft) NO 47 0 min 0,000 mm 0,0 UV-I 0 W/m 9,8 C 19,0 C 0,0 km/h (0 Bft)
04.06.2015 21:55 18,8 C 56 % 1022,9 hPa 0,0 l/m 0,0 km/h (0 Bft) NO 47 0 min 0,000 mm 0,0 UV-I 0 W/m 9,8 C 18,8 C 0,0 km/h (0 Bft)
04.06.2015 22:00 18,7 C 56 % 1022,9 hPa 0,0 l/m 0,0 km/h (0 Bft) NO 47 0 min 0,025 mm 0,0 UV-I 0 W/m 9,7 C 18,7 C 0,0 km/h (0 Bft)
04.06.2015 22:05 18,3 C 57 % 1023,0 hPa 0,0 l/m 0,0 km/h (0 Bft) NO 47 0 min 0,000 mm 0,0 UV-I 0 W/m 9,6 C 18,3 C 0,0 km/h (0 Bft)
04.06.2015 22:10 18,1 C 58 % 1023,0 hPa 0,0 l/m 0,0 km/h (0 Bft) NO 47 0 min 0,000 mm 0,0 UV-I 0 W/m 9,7 C 18,1 C 0,0 km/h (0 Bft)
04.06.2015 22:15 17,8 C 59 % 1023,0 hPa 0,0 l/m 0,0 km/h (0 Bft) NO 47 0 min 0,000 mm 0,0 UV-I 0 W/m 9,7 C 17,8 C 0,0 km/h (0 Bft)
04.06.2015 22:20 17,7 C 60 % 1023,0 hPa 0,0 l/m 0,0 km/h (0 Bft) NO 47 0 min 0,000 mm 0,0 UV-I 0 W/m 9,8 C 17,7 C 0,0 km/h (0 Bft)
04.06.2015 22:25 17,4 C 60 % 1023,0 hPa 0,0 l/m 0,0 km/h (0 Bft) NO 47 0 min 0,000 mm 0,0 UV-I 0 W/m 9,6 C 17,4 C 0,0 km/h (0 Bft)
04.06.2015 22:30 17,2 C 61 % 1023,1 hPa 0,0 l/m 0,0 km/h (0 Bft) NO 47 0 min 0,000 mm 0,0 UV-I 0 W/m 9,6 C 17,2 C 0,0 km/h (0 Bft)
04.06.2015 22:35 17,1 C 61 % 1023,1 hPa 0,0 l/m 0,0 km/h (0 Bft) NO 47 0 min 0,000 mm 0,0 UV-I 0 W/m 9,5 C 17,1 C 0,0 km/h (0 Bft)
04.06.2015 22:40 17,1 C 61 % 1023,1 hPa 0,0 l/m 0,0 km/h (0 Bft) NO 47 0 min 0,000 mm 0,0 UV-I 0 W/m 9,5 C 17,1 C 0,0 km/h (0 Bft)
04.06.2015 22:45 17,0 C 61 % 1023,2 hPa 0,0 l/m 0,0 km/h (0 Bft) NO 47 0 min 0,000 mm 0,0 UV-I 0 W/m 9,4 C 17,0 C 0,0 km/h (0 Bft)
04.06.2015 22:50 16,9 C 62 % 1023,2 hPa 0,0 l/m 0,0 km/h (0 Bft) NO 47 0 min 0,000 mm 0,0 UV-I 0 W/m 9,6 C 16,9 C 0,0 km/h (0 Bft)
04.06.2015 22:55 16,8 C 62 % 1023,2 hPa 0,0 l/m 0,0 km/h (0 Bft) NO 47 0 min 0,000 mm 0,0 UV-I 0 W/m 9,5 C 16,8 C 0,0 km/h (0 Bft)
04.06.2015 23:00 16,6 C 63 % 1023,2 hPa 0,0 l/m 0,0 km/h (0 Bft) NO 47 0 min 0,025 mm 0,0 UV-I 0 W/m 9,5 C 16,6 C 0,0 km/h (0 Bft)
04.06.2015 23:05 16,4 C 63 % 1023,1 hPa 0,0 l/m 0,0 km/h (0 Bft) NO 47 0 min 0,000 mm 0,0 UV-I 0 W/m 9,3 C 16,4 C 0,0 km/h (0 Bft)
04.06.2015 23:10 16,4 C 63 % 1023,1 hPa 0,0 l/m 0,0 km/h (0 Bft) NO 47 0 min 0,000 mm 0,0 UV-I 0 W/m 9,3 C 16,4 C 0,0 km/h (0 Bft)
04.06.2015 23:15 16,3 C 64 % 1023,1 hPa 0,0 l/m 0,0 km/h (0 Bft) NO 47 0 min 0,000 mm 0,0 UV-I 0 W/m 9,5 C 16,3 C 0,0 km/h (0 Bft)
04.06.2015 23:20 16,2 C 65 % 1023,2 hPa 0,0 l/m 0,0 km/h (0 Bft) NO 47 0 min 0,000 mm 0,0 UV-I 0 W/m 9,6 C 16,2 C 0,0 km/h (0 Bft)
04.06.2015 23:25 16,1 C 65 % 1023,1 hPa 0,0 l/m 0,0 km/h (0 Bft) NO 47 0 min 0,000 mm 0,0 UV-I 0 W/m 9,5 C 16,1 C 0,0 km/h (0 Bft)
04.06.2015 23:30 15,9 C 65 % 1023,1 hPa 0,0 l/m 0,0 km/h (0 Bft) NO 47 0 min 0,000 mm 0,0 UV-I 0 W/m 9,3 C 15,9 C 0,0 km/h (0 Bft)
04.06.2015 23:35 15,8 C 66 % 1023,1 hPa 0,0 l/m 0,0 km/h (0 Bft) NO 47 0 min 0,000 mm 0,0 UV-I 0 W/m 9,5 C 15,8 C 0,0 km/h (0 Bft)
04.06.2015 23:40 15,7 C 66 % 1023,1 hPa 0,0 l/m 0,0 km/h (0 Bft) NO 47 0 min 0,000 mm 0,0 UV-I 0 W/m 9,4 C 15,7 C 0,0 km/h (0 Bft)
04.06.2015 23:45 15,6 C 67 % 1023,1 hPa 0,0 l/m 0,0 km/h (0 Bft) NO 47 0 min 0,000 mm 0,0 UV-I 0 W/m 9,5 C 15,6 C 0,0 km/h (0 Bft)
04.06.2015 23:50 15,4 C 67 % 1023,1 hPa 0,0 l/m 0,0 km/h (0 Bft) NO 47 0 min 0,000 mm 0,0 UV-I 0 W/m 9,3 C 15,4 C 0,0 km/h (0 Bft)
04.06.2015 23:55 15,4 C 68 % 1023,1 hPa 0,0 l/m 0,0 km/h (0 Bft) NO 47 0 min 0,000 mm 0,0 UV-I 0 W/m 9,5 C 15,4 C 0,0 km/h (0 Bft)
_ Min-Zeit 04:40 16:05 21:05 - 00:00 - - - - - - 04:15 04:40 00:00
Minimum _ 8,7 C 33 % 1022,8 hPa - 0,0 km/h (0 Bft) - - - - - - 6,6 C 8,7 C 0,0 km/h (0 Bft)
_ Max-Zeit 16:55 05:35 06:55 00:00 15:30 - - 07:15 15:05 13:05 13:40 21:05 16:55 12:45
Maximum _ 25,3 C 88 % 1027,8 hPa 0,0 l/m 8,7 km/h
NO (2 Bft)
- - 5 min 0,559 mm 6,7 UV-I 888 W/m 10,2 C 25,3 C 19,3 km/h
O-SO (3 Bft)
Durchschnitt _ 17,4 C 59 % 1025,8 hPa #0,0 l/m 1,5 km/h (1 Bft) O-NO - #13:25 h #5,232 mm 3,6 UV-I 495 W/m 8,3 C 17,4 C 5,3 km/h (1 Bft)